RADUGA-1M 1 (32373 NORAD) Tracking and Keplerian Element Data

This shows tracking and keplerian element data for the satellite.

Feedback or suggestion? Click here.




ElementValue
Catalog32373
NameRADUGA-1M 1
Epoch Orbit5061
Epoch Day354.07459417
Epoch Year2025
RAAN53.4889
Inclination9.7763
Eccentricity0.0003332
Argument of Perigee218.8372
Mean Anonmoly317.6938
Mean Motion0.99396168
Decay Rate-2.27E-06
L11 32373U 07058A 25354.07459417 -.00000227 00000+0 00000+0 0 9994
L22 32373 9.7763 53.4889 0003332 218.8372 317.6938 0.99396168 50611



Live tracking and technical data element details for RADUGA-1M 1 (NORAD 32373). RADUGA-1M 1 can be tracked NOW for your location showing map with azimuth and elevation plus other details from your city location.







IsCatalogInMostPopularTable: catalog: 32373, numindb: 428
Update: records affected: 1



GetName: 32373 RADUGA-1M 1

Hit Count: updated at: Wed, 15 Apr 2026 01:46:38 GMT